Location: Arthez
(43.0833°N, 0.2500°W)
Time: 22:14:42
(UTC+00:00)

CENTAUR R/B - Pass Details

Date: 23 October 2021
Orbit: 728 x 1459 km, 63.4° (Epoch: 26 November)

Event Time Altitude Azimuth Distance (km) Brightness Sun altitude
Rises 20:38:57 0° 324° (NW) 4,093 6.4 -39.1°
Reaches altitude 10° 20:41:48 10° 332° (NNW) 3,227 5.7 -39.5°
Enters shadow 20:46:32 33° 1° (N) 2,095 4.2 -40.3°
